千帆星座-144(QIANFAN-144)

导读

QIANFAN-145(NORAD编号69090)属于千帆卫星星座,该星座由多颗低轨卫星组成,主要用于商业遥感等空间应用任务。目前公开渠道尚未披露其详细参数与具体任务细节,根据千帆星座整体规划,卫星具备对地观测能力,可服务于自然资源监测、智慧城市建设、灾害应急响应等领域。作为星座组网的组成部分,QIANFAN-145运行在近地轨道,通过与其他卫星协同,提升星座的重访周期与观测覆盖能力,推动商业航天遥感应用的规模化发展。(148字)

Basic Information
目录编号:
69090
目录名称:
QIANFAN-144
国际标识:
2026-104T
轨道中心:
EARTH
卫星名称:
千帆星座-144
卫星全名:
千帆星座-144(QIANFAN-144)
卫星状态:
在轨 (已飞行116 天)
发射日期:
2026-05-12 UTC
国别 :
中国 (CN)
星等 :
--
Orbit Information
数据来源 国际轨道数据 AOE轨道数据
星历时间 2026-09-05T12:38:08+0800
6小时前
查看轨道信息
2026-08-30T02:00:00+0800
6天前
查看轨道信息
半长轴 7446.612km 7446.614km
偏心率 0.0002408 0.0002222
轨道倾角 88.992° 88.993°
近地点辐角 110.946° 115.466°
升交点赤经 333.300° 333.955°
平近点角 249.195° 245.730°
近地点 1066.681km 1066.822km
远地点 1070.269km 1070.132km
周期 106.585分钟 106.585分钟
每日圈数 13.510292 13.510286
Detailed Information
卫星平台:
144
覆盖范围:
全球
运营商:
上海垣信卫星科技有限公司
运营商所在国:
中国
使用方式:
暂无
Satellite Introduction
千帆星座,也被称为“G60星链”计划,是中国版“星链”的重要组成部分,旨在打造一个由1.4万多颗低轨宽频多媒体卫星构成的庞大星座。千帆星座计划由上海垣信卫星科技有限公司负责实施,于2023年启动建设。该项目是我国第二个低轨卫星大星座,旨在通过构建庞大的卫星网络,为全球用户提供高质量的通信和宽带互联网服务。
2D Orbit Map
3D Orbit Map
Orbit Altitude Analysis Chart
Orbit Inclination Analysis Chart
Orbit Comprehensive Analysis Chart
View Comprehensive Chart
Conjunction Data List
Event ID Objects TCA Miss Dist (km) Collision Risk Probability Collision Risk Index (CRI) Action
CDM_260901-033205-842706-909021
2026-09-01T
03:32:03+0000
2.636 km
极远距离
1.212901E-6 低风险 0.37